Regional Weather Roundup
Issued by NWS

Home | Current Version | Previous Version | Text Only | Print | Product List | Glossary On
Versions: 1 2 3 4 5 6 7 8 9 10 11 12 13 14 15 16 17 18 19 20 21 22 23 24 25 26 27 28 29 30 31 32 33 34 35 36 37 38 39 40 41 42 43 44 45 46 47 48 49 50
000
ASUS43 KDTX 231310
RWRMI
MICHIGAN HOURLY REGIONAL WEATHER ROUNDUP
NATIONAL WEATHER SERVICE DETROIT/PONTIAC MI
900 AM EDT SAT SEP 23 2017

NOTE: "FAIR" INDICATES FEW OR NO CLOUDS BELOW 12,000 FEET WITH NO
SIGNIFICANT WEATHER AND/OR OBSTRUCTION TO VISIBILITY.

MIZ047>049-052>055-059>063-066>070-074>076-081>083-231400-
SOUTHEAST LOWER MICHIGAN

CITY           SKY/WX    TMP DP  RH WIND       PRES   REMARKS
ADRIAN         SUNNY     67  63  87 NE3       30.16R FOG
ALMA           SUNNY     69  65  89 W6        30.13R
ANN ARBOR      MOSUNNY   67  66  97 CALM      30.15R
BAD AXE        SUNNY     72  64  76 CALM      30.14R
CARO           SUNNY     71  64  79 CALM      30.13R
DETROIT CITY   SUNNY     71  66  84 CALM      30.14S
DETROIT        MOSUNNY   69  65  86 NE3       30.15R FOG
FLINT          SUNNY     70  64  81 S3        30.14R
GROSSE ILE     SUNNY     70  66  89 CALM      30.13S
HILLSDALE      SUNNY     68  64  88 CALM      30.14S
HOWELL         SUNNY     69  65  85 CALM      30.15R

CITY           SKY/WX    TMP DP  RH WIND       PRES   REMARKS
JACKSON        SUNNY     69  64  84 CALM      30.14S HAZE
LAMBERTVILLE   SUNNY     68  66  92 CALM      30.14R FOG
LANSING        SUNNY     71  63  75 CALM      30.14R
LAPEER         FAIR      67  65  90 CALM      30.15R
MASON          SUNNY     71  65  81 CALM      30.14R
MONROE         SUNNY     69  67  93 CALM      30.14R FOG
MT. CLEMENS    MOSUNNY   66  66 100 CALM      30.12S
PONTIAC        MOSUNNY   70  65  84 S3        30.14R
PORT HOPE        N/A     74  64  71 CALM      30.11R
PORT HURON     CLOUDY    70  66  88 CALM      30.14S
TRI CITIES     SUNNY     72  67  84 SW7       30.13R
MIDLAND        FAIR      67  67 100 CALM      30.12R
TROY           SUNNY     70  64  82 CALM      30.16S
SAGINAW HB     SUNNY     72  64  78 SE5       30.12R
$$
MIZ043>046-050>051-056>058-064>065-071>073-077>080-231400-
SOUTHWEST LOWER MICHIGAN

CITY           SKY/WX    TMP DP  RH WIND       PRES   REMARKS
BATTLE CREEK   SUNNY     71  66  84 CALM      30.14R
BENTON HARBOR  SUNNY     74  68  81 CALM      30.11R
BIG RAPIDS     SUNNY     63  60  91 CALM      30.13R
COLDWATER      SUNNY     69  67  95 CALM      30.14R
FREMONT        FAIR      70  68  93 CALM      30.11R
HOLLAND        SUNNY     73  67  81 S3        30.12R
GRAND RAPIDS   MOSUNNY   74  66  76 CALM      30.12R
IONIA          FAIR      71  64  77 CALM      30.13R
KALAMAZOO      SUNNY     72  65  78 CALM      30.13R
LUDINGTON      SUNNY     76  67  73 S3        30.09R
MARSHALL       SUNNY     67  67  98 CALM      30.14R
MOUNT PLEASANT SUNNY     68  68 100 CALM      30.12R
MUSKEGON       MOSUNNY   76  68  76 S5        30.11R
SOUTH HAVEN    SUNNY     72  68  88 CALM      30.12R
$$
MIZ016>042-231400-
NORTHERN LOWER MICHIGAN

CITY           SKY/WX    TMP DP  RH WIND       PRES   REMARKS
ALPENA         SUNNY     72  67  84 CALM      30.09R
BEAVER ISLAND  SUNNY     75  66  74 SW13G22   30.05R
BELLAIRE       SUNNY     68  64  86 CALM      30.08R
CADILLAC       SUNNY     69  64  83 CALM      30.12S
CHARLEVOIX     SUNNY     75  65  72 S6        30.09R
FRANKFORT      SUNNY     79  67  66 S5        30.08R
GAYLORD        SUNNY     69  63  81 W3        30.12R
GRAYLING       SUNNY     65  61  85 CALM      30.13R
HARBOR SPRINGS SUNNY     73  66  78 W3        30.06S
HOUGHTON LAKE  SUNNY     68  63  84 CALM      30.13R
MANISTEE       SUNNY     68  65  90 E3        30.09R
OSCODA         SUNNY     71  69  94 SW5       30.10R
PELLSTON       SUNNY     70  65  84 SE3       30.06R
ROGERS CITY    SUNNY     73  65  75 SW8       30.08R
TRAVERSE CITY  MOSUNNY   75  65  70 CALM      30.06R HAZE
$$
MIZ007>008-015-231400-
EASTERN UPPER MICHIGAN

CITY           SKY/WX    TMP DP  RH WIND       PRES   REMARKS
KINROSS        CLOUDY    68  65  90 SE3       30.06R
MACKINAC ISLAN SUNNY     74  64  70 SW3       30.05R
NEWBERRY       CLOUDY    68  67  97 S9        30.02S
S. S. MARIE    CLOUDY    68  65  90 S5        30.05R
MUNISING         N/A     73  68  84 S6        29.99R
$$
MIZ004>006-011>014-085-231400-
CENTRAL UPPER MICHIGAN

CITY           SKY/WX    TMP DP  RH WIND       PRES   REMARKS
MANISTIQUE     SUNNY     66  60  81 S8        30.02S HAZE
ESCANABA       SUNNY     67  66  97 SW6       30.01S
MENOMINEE      SUNNY     70  66  87 SW7       30.04R
SAWYER-GWINN   SUNNY     63  63 100 S9        30.01R
$$
MIZ001>003-009>011-084-231400-
WESTERN UPPER MICHIGAN

CITY           SKY/WX    TMP DP  RH WIND       PRES   REMARKS
IRON MOUNTAIN  SUNNY     72  64  76 SE5       30.00S
HOUGHTON       CLOUDY    70  65  84 S7        29.93S
COPPER HARBOR    N/A     73  66  78 W12G18    29.88F
IRONWOOD       MOSUNNY   75  67  76 S10       29.96R
$$

ABBREVIATIONS USED IN REMARKS
   TC - TEMPERATURE IN CELSIUS
  WCI - WIND CHILL INDEX
   HX - HEAT INDEX
  VSB - VISIBILITY





USA.gov is the U.S. government's official web portal to all federal, state and local government web resources and services.